This is the latest recevied weather packets stored in our database for station/object SP3SWJ-13. If no packets are shown the sender has not sent any weather packets the latest 10 day(s).
| Time | Temp. | Humidity | Pressure | Rain* | Wind** | Luminosity | Snow |
|---|---|---|---|---|---|---|---|
| 1777396201 | 14.44° C | 23% | 1014.8 hPa | - | - | 30 W/m² | - |
| 1777395900 | 15° C | 23% | 1014.7 hPa | - | - | 33 W/m² | - |
| 1777395599 | 14.44° C | 24% | 1014.7 hPa | - | - | 37 W/m² | - |
| 1777395298 | 13.89° C | 25% | 1014.8 hPa | - | - | 40 W/m² | - |
| 1777394997 | 14.44° C | 24% | 1014.7 hPa | - | - | 45 W/m² | - |
| 1777394697 | 15.56° C | 22% | 1014.7 hPa | - | - | 50 W/m² | - |
| 1777394396 | 15° C | 23% | 1014.7 hPa | - | - | 57 W/m² | - |
| 1777394094 | 15° C | 23% | 1014.7 hPa | - | - | 67 W/m² | - |
| 1777393793 | 14.44° C | 23% | 1014.7 hPa | - | - | 77 W/m² | - |
| 1777393492 | 13.89° C | 23% | 1014.7 hPa | - | - | 88 W/m² | - |
| 1777393192 | 14.44° C | 24% | 1014.7 hPa | - | - | 99 W/m² | - |
| 1777392891 | 15° C | 22% | 1014.7 hPa | - | - | 112 W/m² | - |
| 1777392590 | 15.56° C | 22% | 1014.8 hPa | - | - | 123 W/m² | - |
| 1777392289 | 15° C | 23% | 1014.9 hPa | - | - | 135 W/m² | - |
| 1777391988 | 15° C | 23% | 1014.9 hPa | - | - | 146 W/m² | - |
| 1777391687 | 15° C | 23% | 1014.8 hPa | - | - | 157 W/m² | - |
| 1777391388 | 15.56° C | 22% | 1014.9 hPa | - | - | 170 W/m² | - |
| 1777391085 | 15.56° C | 23% | 1014.9 hPa | - | - | 183 W/m² | - |
| 1777390784 | 15.56° C | 22% | 1014.9 hPa | - | - | 194 W/m² | - |
| 1777390483 | 15° C | 23% | 1014.9 hPa | - | - | 207 W/m² | - |
| 1777390182 | 15° C | 23% | 1015 hPa | - | - | 220 W/m² | - |
| 1777389881 | 13.89° C | 23% | 1015 hPa | - | - | 232 W/m² | - |
| 1777389580 | 13.33° C | 24% | 1015.1 hPa | - | - | 245 W/m² | - |
| 1777389279 | 13.33° C | 24% | 1015.2 hPa | - | - | 259 W/m² | - |
| 1777388978 | 13.33° C | 24% | 1015.2 hPa | - | - | 273 W/m² | - |
* Rain since midnight (hover to see other rain measurements)
** Current wind speed in m/s (hover to see current wind gust speed)